CTN384 LDZA-LDDU

Flight info

Callsign CTN384
Flight time 0h 53m
Altitude 35000
Route NIVES DCT UNIPA DCT SIPAL
Aircraft A319/M-SDE3FGHIRWY/LB1

Departure

Time 2026-04-28 06:10
Airport Zagreb Franjo Tuđman International Airport (LDZA)

Arrival

Time 2026-04-28 07:03
Airport Dubrovnik Ruđer Bošković Airport (LDDU)
Time Latitude Longitude Altitude Speed Heading
2026-04-28 05:37 45.74291 16.08005 365 ft 0 kts 136°
2026-04-28 06:00 45.74292 16.08004 359 ft 2 kts 136°
2026-04-28 06:01 45.74311 16.07980 363 ft 4 kts 142°
2026-04-28 06:01 45.74331 16.07957 363 ft 2 kts 136°
2026-04-28 06:01 45.74345 16.07933 366 ft 4 kts 106°
2026-04-28 06:01 45.74343 16.07901 363 ft 4 kts 50°
2026-04-28 06:02 45.74329 16.07878 365 ft 1 kts 46°
2026-04-28 06:04 45.74331 16.07882 366 ft 1 kts 46°
2026-04-28 06:04 45.74343 16.07895 363 ft 5 kts 36°
2026-04-28 06:04 45.74407 16.07874 359 ft 12 kts 320°
2026-04-28 06:05 45.74473 16.07786 359 ft 14 kts 317°
2026-04-28 06:05 45.74540 16.07683 359 ft 15 kts 289°
2026-04-28 06:05 45.74486 16.07567 359 ft 15 kts 226°
2026-04-28 06:05 45.74410 16.07451 359 ft 17 kts 227°
2026-04-28 06:06 45.74328 16.07326 363 ft 18 kts 226°
2026-04-28 06:06 45.74241 16.07194 365 ft 19 kts 226°
2026-04-28 06:06 45.74148 16.07053 359 ft 20 kts 226°
2026-04-28 06:06 45.74051 16.06905 359 ft 21 kts 227°
2026-04-28 06:07 45.73948 16.06749 359 ft 22 kts 227°
2026-04-28 06:07 45.73842 16.06588 359 ft 20 kts 227°
2026-04-28 06:07 45.73754 16.06453 359 ft 16 kts 227°
2026-04-28 06:07 45.73780 16.06344 360 ft 13 kts 316°
2026-04-28 06:08 45.73845 16.06261 361 ft 12 kts 329°
2026-04-28 06:08 45.73916 16.06300 361 ft 12 kts 50°
2026-04-28 06:08 45.73929 16.06321 361 ft 0 kts 47°
2026-04-28 06:08 45.73934 16.06329 361 ft 2 kts 47°
2026-04-28 06:09 45.73944 16.06345 367 ft 3 kts 47°
2026-04-28 06:09 45.73960 16.06370 365 ft 4 kts 47°
2026-04-28 06:09 45.74013 16.06450 361 ft 37 kts 46°
2026-04-28 06:09 45.74389 16.07022 362 ft 117 kts 46°
2026-04-28 06:10 45.75057 16.08044 633 ft 147 kts 48°
2026-04-28 06:10 45.75585 16.09297 1404 ft 145 kts 66°
2026-04-28 06:10 45.75901 16.10648 2160 ft 144 kts 77°
2026-04-28 06:10 45.76034 16.12186 2592 ft 166 kts 89°
2026-04-28 06:11 45.75904 16.13932 3051 ft 187 kts 103°
2026-04-28 06:11 45.75563 16.15827 3573 ft 208 kts 104°
2026-04-28 06:11 45.75221 16.17982 4045 ft 232 kts 102°
2026-04-28 06:11 45.74884 16.20270 4998 ft 238 kts 102°
2026-04-28 06:12 45.74542 16.22617 5927 ft 245 kts 102°
2026-04-28 06:12 45.74186 16.25046 6699 ft 255 kts 103°
2026-04-28 06:12 45.73817 16.27541 6932 ft 257 kts 103°
2026-04-28 06:12 45.73257 16.29964 6998 ft 257 kts 117°
2026-04-28 06:13 45.72253 16.32061 6997 ft 256 kts 134°
2026-04-28 06:13 45.70964 16.33809 6998 ft 255 kts 138°
2026-04-28 06:13 45.69659 16.35538 6983 ft 256 kts 138°
2026-04-28 06:13 45.68193 16.36925 6985 ft 253 kts 162°
2026-04-28 06:14 45.66465 16.37119 6985 ft 253 kts 192°
2026-04-28 06:14 45.64852 16.35935 7333 ft 274 kts 224°
2026-04-28 06:14 45.63558 16.33969 8336 ft 276 kts 228°
2026-04-28 06:14 45.62222 16.31925 9403 ft 280 kts 228°
2026-04-28 06:15 45.60879 16.29887 10386 ft 283 kts 228°
2026-04-28 06:15 45.59519 16.27829 11307 ft 287 kts 228°
2026-04-28 06:15 45.58141 16.25740 12217 ft 291 kts 229°
2026-04-28 06:15 45.56745 16.23618 13122 ft 295 kts 229°
2026-04-28 06:16 45.55330 16.21464 14016 ft 299 kts 229°
2026-04-28 06:16 45.53895 16.19283 14804 ft 303 kts 230°
2026-04-28 06:16 45.52446 16.17080 15605 ft 307 kts 230°
2026-04-28 06:16 45.50975 16.14850 16395 ft 310 kts 230°
2026-04-28 06:17 45.49487 16.12594 17183 ft 314 kts 230°
2026-04-28 06:17 45.47984 16.10316 17985 ft 317 kts 231°
2026-04-28 06:17 45.46463 16.08015 18692 ft 322 kts 231°
2026-04-28 06:18 45.43195 16.03053 19132 ft 360 kts 230°
2026-04-28 06:18 45.41463 16.00432 19681 ft 366 kts 230°
2026-04-28 06:18 45.39706 15.97783 20318 ft 370 kts 230°
2026-04-28 06:18 45.37928 15.95111 20971 ft 374 kts 230°
2026-04-28 06:19 45.36133 15.92418 21614 ft 377 kts 230°
2026-04-28 06:19 45.34120 15.89970 22238 ft 387 kts 217°
2026-04-28 06:19 45.31646 15.88333 22866 ft 400 kts 201°
2026-04-28 06:19 45.28859 15.87746 23479 ft 412 kts 183°
2026-04-28 06:20 45.25993 15.88365 24001 ft 424 kts 165°
2026-04-28 06:20 45.23273 15.90078 24485 ft 430 kts 156°
2026-04-28 06:20 45.20502 15.91684 24976 ft 431 kts 163°
2026-04-28 06:20 45.17663 15.93086 25459 ft 434 kts 163°
2026-04-28 06:21 45.14799 15.94489 25942 ft 437 kts 164°
2026-04-28 06:21 45.11912 15.95894 26396 ft 441 kts 164°
2026-04-28 06:21 45.09001 15.97309 26844 ft 444 kts 164°
2026-04-28 06:21 45.06068 15.98738 27289 ft 447 kts 164°
2026-04-28 06:22 45.03118 16.00183 27727 ft 450 kts 163°
2026-04-28 06:22 45.01149 16.01147 28057 ft 452 kts 163°
2026-04-28 06:22 44.98176 16.02601 28528 ft 454 kts 163°
2026-04-28 06:22 44.95175 16.04066 28980 ft 457 kts 163°
2026-04-28 06:23 44.91171 16.06018 29550 ft 462 kts 163°
2026-04-28 06:23 44.89119 16.07017 29835 ft 464 kts 163°
2026-04-28 06:23 44.86057 16.08505 30240 ft 467 kts 163°
2026-04-28 06:23 44.82980 16.10001 30591 ft 469 kts 163°
2026-04-28 06:24 44.79889 16.11506 30976 ft 470 kts 163°
2026-04-28 06:24 44.76794 16.13011 31347 ft 472 kts 163°
2026-04-28 06:24 44.73676 16.14520 31671 ft 475 kts 163°
2026-04-28 06:24 44.70547 16.16028 31997 ft 477 kts 163°
2026-04-28 06:25 44.67412 16.17535 32479 ft 475 kts 163°
2026-04-28 06:25 44.64282 16.19040 32928 ft 475 kts 163°
2026-04-28 06:25 44.61163 16.20543 33396 ft 473 kts 163°
2026-04-28 06:25 44.58056 16.22040 33926 ft 471 kts 163°
2026-04-28 06:26 44.54962 16.23530 34412 ft 469 kts 163°
2026-04-28 06:26 44.51876 16.25016 34840 ft 469 kts 163°
2026-04-28 06:26 44.48792 16.26495 35064 ft 469 kts 163°
2026-04-28 06:27 44.42708 16.29408 35116 ft 456 kts 163°
2026-04-28 06:27 44.36720 16.32260 35117 ft 454 kts 163°
2026-04-28 06:28 44.30744 16.35102 35113 ft 454 kts 163°
2026-04-28 06:28 44.24771 16.37938 35106 ft 453 kts 163°
2026-04-28 06:29 44.18799 16.40770 35085 ft 453 kts 163°
2026-04-28 06:29 44.12834 16.43600 35092 ft 453 kts 163°
2026-04-28 06:30 44.06868 16.46424 35096 ft 453 kts 163°
2026-04-28 06:30 44.00993 16.49582 35100 ft 455 kts 156°
2026-04-28 06:31 43.95300 16.53410 35092 ft 455 kts 156°
2026-04-28 06:31 43.89605 16.57221 35094 ft 454 kts 156°
2026-04-28 06:32 43.83912 16.61026 35088 ft 454 kts 156°
2026-04-28 06:32 43.78222 16.64826 35091 ft 454 kts 156°
2026-04-28 06:33 43.72527 16.68617 35084 ft 454 kts 156°
2026-04-28 06:33 43.66843 16.72402 35093 ft 454 kts 156°
2026-04-28 06:34 43.61154 16.76174 35090 ft 453 kts 156°
2026-04-28 06:34 43.55465 16.79945 35092 ft 453 kts 156°
2026-04-28 06:35 43.49778 16.83702 35084 ft 453 kts 156°
2026-04-28 06:35 43.44091 16.87451 35083 ft 453 kts 156°
2026-04-28 06:36 43.38394 16.91191 34799 ft 454 kts 156°
2026-04-28 06:36 43.35542 16.93061 34558 ft 454 kts 156°
2026-04-28 06:36 43.32690 16.94932 34305 ft 453 kts 156°
2026-04-28 06:36 43.29844 16.96798 34061 ft 453 kts 155°
2026-04-28 06:37 43.27002 16.98660 33791 ft 453 kts 156°
2026-04-28 06:37 43.24154 17.00522 33519 ft 453 kts 156°
2026-04-28 06:37 43.21306 17.02379 33247 ft 454 kts 156°
2026-04-28 06:37 43.18453 17.04237 32966 ft 453 kts 156°
2026-04-28 06:38 43.15620 17.06080 32412 ft 449 kts 156°
2026-04-28 06:38 43.12713 17.07569 31870 ft 443 kts 166°
2026-04-28 06:38 43.09725 17.08507 31338 ft 439 kts 170°
2026-04-28 06:38 43.06747 17.09355 30803 ft 435 kts 170°
2026-04-28 06:39 43.03793 17.10201 30292 ft 432 kts 170°
2026-04-28 06:39 43.00859 17.11046 29705 ft 429 kts 170°
2026-04-28 06:39 42.97958 17.11884 29198 ft 424 kts 170°
2026-04-28 06:39 42.95091 17.12715 28696 ft 419 kts 170°
2026-04-28 06:40 42.92256 17.13537 28196 ft 415 kts 169°
2026-04-28 06:40 42.89443 17.14349 27710 ft 411 kts 170°
2026-04-28 06:40 42.86656 17.15151 27232 ft 408 kts 170°
2026-04-28 06:40 42.83893 17.15944 26764 ft 405 kts 170°
2026-04-28 06:41 42.81147 17.16729 26305 ft 402 kts 170°
2026-04-28 06:41 42.78414 17.17515 25847 ft 400 kts 170°
2026-04-28 06:41 42.75736 17.18510 25380 ft 399 kts 160°
2026-04-28 06:41 42.73262 17.20214 24918 ft 399 kts 147°
2026-04-28 06:42 42.71115 17.22585 24441 ft 398 kts 135°
2026-04-28 06:42 42.69378 17.25500 23952 ft 396 kts 122°
2026-04-28 06:42 42.68049 17.28769 23433 ft 395 kts 117°
2026-04-28 06:42 42.66781 17.32063 22917 ft 392 kts 117°
2026-04-28 06:43 42.65521 17.35336 22429 ft 389 kts 117°
2026-04-28 06:43 42.64270 17.38572 21962 ft 385 kts 117°
2026-04-28 06:43 42.63033 17.41778 21497 ft 382 kts 117°
2026-04-28 06:43 42.61804 17.44962 21024 ft 379 kts 117°
2026-04-28 06:44 42.60582 17.48121 20559 ft 377 kts 117°
2026-04-28 06:44 42.59365 17.51257 20094 ft 374 kts 117°
2026-04-28 06:44 42.58154 17.54370 19634 ft 372 kts 117°
2026-04-28 06:44 42.56946 17.57468 19176 ft 370 kts 117°
2026-04-28 06:45 42.55747 17.60545 18726 ft 368 kts 117°
2026-04-28 06:45 42.54554 17.63607 18264 ft 366 kts 117°
2026-04-28 06:45 42.53366 17.66651 17786 ft 364 kts 117°
2026-04-28 06:45 42.52186 17.69666 17350 ft 360 kts 117°
2026-04-28 06:46 42.51020 17.72646 16909 ft 357 kts 117°
2026-04-28 06:46 42.49857 17.75613 16506 ft 353 kts 117°
2026-04-28 06:46 42.48725 17.78501 16378 ft 342 kts 117°
2026-04-28 06:46 42.47794 17.81399 16245 ft 330 kts 101°
2026-04-28 06:47 42.47794 17.84414 16118 ft 316 kts 73°
2026-04-28 06:47 42.48736 17.86996 15984 ft 302 kts 47°
2026-04-28 06:47 42.50332 17.88743 15698 ft 294 kts 26°
2026-04-28 06:47 42.52129 17.90040 15228 ft 292 kts 25°
2026-04-28 06:48 42.54010 17.90940 14708 ft 285 kts
2026-04-28 06:48 42.55943 17.90639 14205 ft 279 kts 337°
2026-04-28 06:48 42.57544 17.89236 13670 ft 275 kts 312°
2026-04-28 06:48 42.58584 17.87076 13178 ft 275 kts 297°
2026-04-28 06:49 42.59481 17.84775 12778 ft 277 kts 297°
2026-04-28 06:49 42.60383 17.82466 12406 ft 277 kts 297°
2026-04-28 06:49 42.61282 17.80166 12063 ft 277 kts 297°
2026-04-28 06:49 42.62182 17.77868 11743 ft 275 kts 297°
2026-04-28 06:50 42.63082 17.75568 11421 ft 274 kts 297°
2026-04-28 06:50 42.63974 17.73287 10993 ft 272 kts 297°
2026-04-28 06:50 42.64857 17.71028 10549 ft 271 kts 297°
2026-04-28 06:50 42.65770 17.68807 10159 ft 269 kts 304°
2026-04-28 06:51 42.67173 17.67215 9879 ft 260 kts 335°
2026-04-28 06:51 42.68915 17.66739 9420 ft 257 kts
2026-04-28 06:51 42.70590 17.67461 9081 ft 249 kts 28°
2026-04-28 06:51 42.72073 17.68546 8951 ft 235 kts 28°
2026-04-28 06:52 42.73472 17.69552 8809 ft 220 kts 27°
2026-04-28 06:52 42.74769 17.70528 8637 ft 208 kts 35°
2026-04-28 06:52 42.75749 17.71954 8206 ft 208 kts 60°
2026-04-28 06:52 42.76225 17.73785 7783 ft 206 kts 84°
2026-04-28 06:53 42.76137 17.75703 7373 ft 202 kts 106°
2026-04-28 06:53 42.75563 17.77432 6942 ft 201 kts 120°
2026-04-28 06:53 42.74896 17.79116 6642 ft 203 kts 119°
2026-04-28 06:53 42.74239 17.80797 6382 ft 197 kts 119°
2026-04-28 06:54 42.73606 17.82418 6098 ft 192 kts 119°
2026-04-28 06:54 42.72984 17.84015 5830 ft 191 kts 119°
2026-04-28 06:54 42.72336 17.85670 5572 ft 211 kts 119°
2026-04-28 06:54 42.71649 17.87425 5273 ft 206 kts 119°
2026-04-28 06:55 42.70997 17.89091 5020 ft 193 kts 120°
2026-04-28 06:55 42.70400 17.90613 4811 ft 171 kts 120°
2026-04-28 06:55 42.69875 17.91954 4665 ft 149 kts 120°
2026-04-28 06:55 42.69403 17.93157 4626 ft 142 kts 120°
2026-04-28 06:56 42.68942 17.94332 4577 ft 141 kts 121°
2026-04-28 06:56 42.68483 17.95502 4521 ft 140 kts 120°
2026-04-28 06:56 42.68025 17.96668 4460 ft 139 kts 120°
2026-04-28 06:56 42.67569 17.97830 4398 ft 140 kts 120°
2026-04-28 06:57 42.67112 17.98995 4329 ft 139 kts 120°
2026-04-28 06:57 42.66656 18.00155 4281 ft 139 kts 120°
2026-04-28 06:57 42.66201 18.01316 4217 ft 139 kts 120°
2026-04-28 06:57 42.65744 18.02477 4082 ft 139 kts 120°
2026-04-28 06:58 42.65290 18.03631 3919 ft 138 kts 120°
2026-04-28 06:58 42.64838 18.04781 3753 ft 138 kts 120°
2026-04-28 06:58 42.64387 18.05928 3554 ft 137 kts 120°
2026-04-28 06:58 42.63938 18.07068 3392 ft 137 kts 120°
2026-04-28 06:59 42.63491 18.08204 3216 ft 136 kts 120°
2026-04-28 06:59 42.63048 18.09329 3033 ft 135 kts 119°
2026-04-28 06:59 42.62609 18.10442 2859 ft 133 kts 119°
2026-04-28 06:59 42.62175 18.11545 2684 ft 132 kts 119°
2026-04-28 07:00 42.61743 18.12640 2505 ft 131 kts 119°
2026-04-28 07:00 42.61316 18.13720 2333 ft 129 kts 119°
2026-04-28 07:00 42.60893 18.14793 2164 ft 129 kts 119°
2026-04-28 07:00 42.60473 18.15857 1990 ft 127 kts 119°
2026-04-28 07:01 42.60057 18.16910 1827 ft 127 kts 118°
2026-04-28 07:01 42.59640 18.17966 1663 ft 127 kts 118°
2026-04-28 07:01 42.59224 18.19019 1493 ft 127 kts 118°
2026-04-28 07:01 42.58807 18.20072 1330 ft 127 kts 118°
2026-04-28 07:02 42.58392 18.21122 1164 ft 126 kts 119°
2026-04-28 07:02 42.57978 18.22168 1012 ft 126 kts 118°
2026-04-28 07:02 42.57567 18.23206 826 ft 126 kts 120°
2026-04-28 07:02 42.57154 18.24239 674 ft 124 kts 119°
2026-04-28 07:03 42.56755 18.25265 536 ft 121 kts 119°
2026-04-28 07:03 42.56407 18.26124 517 ft 84 kts 117°
2026-04-28 07:03 42.56218 18.26619 512 ft 29 kts 125°
2026-04-28 07:03 42.56163 18.26629 512 ft 4 kts 236°
2026-04-28 07:04 42.56146 18.26586 512 ft 6 kts 238°
2026-04-28 07:04 42.56123 18.26535 512 ft 7 kts 240°
2026-04-28 07:04 42.56101 18.26477 513 ft 7 kts 249°
2026-04-28 07:04 42.56110 18.26421 514 ft 6 kts 298°
2026-04-28 07:05 42.56132 18.26366 514 ft 7 kts 298°
2026-04-28 07:05 42.56112 18.26320 514 ft 6 kts 203°
2026-04-28 07:05 42.56089 18.26306 514 ft 1 kts 204°
2026-04-28 07:05 42.56086 18.26304 514 ft 0 kts 204°